Temperature
33 33 32 33 34 34 34 33 33 33 34 34 33 32 32 32 31 30 29 28 27 27 26 25 24 23 22 22 21 21 20 20 20 20 20 20 20 19 19 19 19 19 19 19
33 32 34 35 35 34 34 33 33 34 35 34 33 33 33 32 32 31 30 29 28 27 26 25 24 23 23 22 21 21 20 20 20 20 20 20 20 20 19 19 19 19 19 19
32 34 35 35 34 34 34 34 33 33 34 34 33 32 32 33 32 32 31 30 29 28 26 25 24 24 23 22 21 21 21 20 20 20 20 19 19 19 19 19 19 19 19 19
33 34 35 34 34 34 33 35 34 34 33 33 33 31 32 32 33 32 31 30 30 28 27 26 24 24 23 22 22 21 21 20 20 20 20 19 19 19 19 19 19 19 18 18
33 34 34 34 34 34 34 35 34 34 33 33 33 32 31 32 32 32 32 31 30 29 28 26 25 24 23 23 22 21 21 20 20 20 20 19 19 19 19 19 19 19 19 18
34 35 35 35 35 35 35 34 34 34 33 31 32 32 30 32 31 32 32 31 30 29 28 26 25 24 23 23 22 21 21 21 20 20 20 19 19 19 19 19 19 19 18 18
32 34 35 35 34 34 34 33 31 30 31 31 33 32 32 33 33 33 33 32 31 29 28 27 26 24 23 23 22 22 21 21 20 20 20 20 19 19 19 19 19 18 18 18
31 32 34 34 34 33 33 33 31 30 30 31 33 32 33 34 34 33 33 31 30 29 28 27 26 25 24 23 22 22 21 21 20 20 20 20 19 19 19 19 18 18 18 18
32 32 34 34 35 34 33 33 34 32 31 31 32 32 33 34 34 33 33 31 30 29 28 27 26 25 24 23 22 22 21 21 21 20 20 20 19 19 19 19 19 18 18 18
32 31 33 34 34 34 34 34 33 32 30 30 31 32 32 32 32 32 32 32 30 29 29 27 26 25 24 24 23 22 21 21 21 20 20 20 20 19 19 19 19 18 18 18
32 31 32 33 32 32 33 33 32 32 32 31 30 31 34 32 32 32 32 31 30 30 29 28 27 26 25 24 23 22 21 21 21 20 20 20 20 20 19 19 19 18 18 18
32 31 30 32 33 34 33 33 32 31 30 31 30 31 34 33 33 33 32 31 30 29 29 28 27 26 25 24 23 22 21 21 20 20 20 20 19 19 19 19 19 18 18 18
30 30 29 30 31 32 32 33 33 32 31 31 30 31 34 33 33 32 31 30 29 29 28 27 26 26 25 24 23 22 21 21 20 20 20 20 19 19 19 19 19 18 18 18
29 29 29 29 30 31 31 32 32 32 31 31 31 31 32 33 32 31 30 29 29 28 27 26 26 25 24 24 23 22 21 21 20 20 20 20 19 19 19 19 18 18 18 18
29 28 29 30 31 31 31 31 32 31 31 31 31 32 32 32 31 30 29 29 28 28 27 26 25 25 24 23 22 22 21 21 20 20 20 19 19 19 19 19 18 18 18 18
28 27 28 28 30 30 30 31 31 31 32 32 32 31 32 32 31 29 29 28 28 28 27 26 25 24 23 23 22 22 21 21 20 20 20 19 19 19 19 18 18 18 18 18
27 26 26 27 29 29 29 30 31 31 32 32 31 31 32 31 30 29 28 27 27 27 26 25 25 24 23 22 22 21 21 21 20 20 19 19 19 18 18 18 18 18 17 17
26 25 25 27 27 26 29 32 32 31 31 32 31 31 31 30 29 28 27 26 26 26 26 25 24 24 23 22 22 21 21 20 20 19 19 19 19 18 18 18 18 17 17 17
26 25 25 26 26 27 29 30 31 30 30 31 30 30 30 29 29 27 26 26 25 25 24 24 24 23 23 22 21 21 21 20 20 19 19 19 19 18 18 18 18 17 17 17
26 25 24 25 25 26 28 30 31 30 28 30 29 29 29 29 28 27 26 25 24 24 23 23 23 23 22 21 21 21 20 20 19 19 19 19 18 18 18 18 17 17 17 17
24 24 24 24 25 26 28 30 30 27 27 28 28 28 27 27 27 26 25 24 23 23 23 22 22 22 22 21 21 20 20 20 19 19 19 18 18 18 18 17 17 17 17 16
24 24 23 24 24 25 27 28 27 26 26 26 27 26 26 25 25 24 24 23 22 22 22 21 21 21 21 21 20 20 20 20 19 19 19 18 18 18 17 17 17 17 16 16
25 24 24 24 24 25 25 25 25 25 25 25 26 25 25 24 24 23 23 22 22 21 21 20 20 20 20 20 20 20 19 19 19 19 18 18 17 17 17 17 17 16 16 16
25 25 24 24 24 25 25 24 24 24 24 24 24 24 24 24 23 22 22 21 21 20 20 19 19 19 19 19 19 19 19 18 18 18 18 17 17 17 17 16 16 16 16 16
23 24 24 23 23 24 24 24 24 23 24 24 23 23 23 23 22 22 21 20 20 19 19 19 19 18 19 19 19 19 18 18 18 17 17 17 17 16 16 16 16 16 16 16
23 23 22 22 22 23 23 22 22 22 23 22 22 22 22 22 21 21 20 19 19 19 18 18 18 18 18 18 18 18 18 18 17 17 17 16 16 16 16 16 15 15 15 15
Wind_Speed
9 8 9 11 10 8 6 4 4 7 7 6 8 12 14 13 12 14 14 13 12 11 12 11 10 10 10 9 7 6 5 4 3 2 2 2 2 2 2 2 3 2 1 1
10 12 13 12 10 9 7 5 3 5 7 5 6 9 14 13 12 12 14 14 14 13 12 12 10 9 9 9 8 6 5 5 4 3 2 1 2 1 1 2 3 2 1 1
12 11 10 11 8 7 8 6 5 4 4 5 4 6 11 13 11 12 13 13 14 14 13 12 10 8 9 9 9 7 6 6 5 4 3 2 2 0 1 2 2 1 1 1
12 13 10 9 9 8 6 6 7 6 6 5 6 5 9 11 12 12 12 13 13 14 14 13 12 10 9 9 9 7 7 6 5 4 3 3 2 2 2 2 2 1 1 1
13 13 12 11 8 7 7 6 8 8 7 7 6 4 6 10 11 12 12 12 13 14 14 13 12 10 9 9 9 8 8 6 5 4 3 2 1 1 1 2 3 2 0 0
12 11 11 10 9 8 8 8 9 9 8 8 7 6 5 8 10 11 13 13 13 14 14 13 12 10 9 8 8 9 8 7 6 5 4 3 2 1 1 1 2 1 1 1
14 13 11 9 10 11 11 9 6 7 7 7 7 6 4 7 10 11 13 14 14 14 14 14 13 12 10 9 8 8 9 8 6 5 4 4 3 2 2 1 1 1 1 1
15 14 14 12 12 10 12 12 8 6 7 8 8 6 5 7 8 10 12 12 12 13 14 14 13 13 11 10 9 9 9 8 7 6 4 3 3 2 1 2 1 1 0 1
11 13 13 12 12 12 11 12 12 10 10 9 6 6 6 7 7 9 11 13 12 12 14 14 14 13 12 11 10 10 9 8 7 6 5 4 3 2 1 1 1 0 1 1
10 9 11 13 11 13 13 12 10 9 8 9 8 6 7 10 9 9 8 10 12 12 14 14 12 12 11 10 10 10 10 9 7 6 5 5 4 3 1 1 1 1 2 2
13 10 11 12 13 13 13 14 10 8 8 9 8 4 5 9 9 10 10 8 10 12 13 14 13 12 12 11 11 10 10 9 8 7 5 4 5 4 3 2 1 2 2 2
11 10 11 13 12 12 12 13 12 9 7 8 8 4 4 9 11 9 9 9 9 10 11 12 13 12 11 10 10 10 10 9 9 7 6 5 5 5 4 3 2 2 3 2
8 8 11 12 12 14 14 14 13 12 10 10 9 6 4 5 7 7 7 8 8 8 8 9 11 10 10 10 9 10 9 9 9 8 7 6 5 5 4 3 3 3 3 3
5 9 12 13 10 11 14 15 14 13 11 12 11 8 5 5 5 5 6 6 7 8 8 8 9 9 9 9 9 10 9 10 9 8 8 7 5 5 5 4 4 4 4 4
8 11 14 15 14 12 12 14 15 16 15 13 11 10 6 5 5 6 6 5 5 7 8 9 8 8 9 10 9 9 9 9 9 8 8 7 6 5 5 4 4 4 4 4
6 9 12 16 16 15 15 15 16 16 16 15 13 10 5 4 4 5 4 5 5 5 6 8 9 9 8 9 10 10 9 9 9 9 8 7 7 6 5 5 5 5 4 4
9 8 11 14 14 14 17 16 16 15 15 13 13 9 5 3 3 5 5 3 3 4 5 5 7 9 8 8 8 9 9 9 9 8 8 8 8 7 6 6 5 6 5 5
8 8 8 13 13 17 12 11 13 14 12 11 9 6 3 3 3 4 4 3 2 2 3 4 6 8 9 8 9 9 9 10 9 9 9 8 8 7 6 5 5 6 5 5
8 7 8 11 15 16 13 11 11 11 10 7 6 4 3 2 3 4 3 2 1 1 1 2 5 6 8 9 9 9 9 10 10 10 9 9 9 8 7 6 6 6 6 5
10 8 10 11 14 14 11 9 8 9 9 4 3 2 2 2 5 3 3 2 2 1 1 1 3 6 7 8 9 9 9 9 10 10 9 9 8 8 8 7 6 6 6 6
14 12 14 15 15 11 8 6 7 10 4 1 1 0 1 1 2 3 4 4 3 2 2 1 2 5 6 7 8 8 8 8 8 9 9 9 8 7 7 6 5 6 6 6
13 12 13 14 16 11 4 6 5 1 3 3 2 1 1 2 2 3 3 4 3 2 1 1 2 3 5 7 8 7 7 7 7 8 9 9 9 8 8 7 6 6 7 7
12 9 8 8 8 1 3 1 3 3 2 2 2 2 1 1 1 1 2 2 1 1 1 0 2 3 4 6 7 8 6 6 7 8 8 8 8 7 8 8 8 7 7 7
10 7 8 7 6 4 2 1 1 1 1 3 2 3 3 2 1 2 2 1 1 1 1 0 1 2 4 5 6 6 7 7 8 8 8 8 8 7 7 5 6 6 6 6
7 7 9 9 7 6 4 3 3 3 3 3 3 3 4 2 2 1 2 2 2 1 1 1 2 2 3 4 5 6 7 7 8 8 8 8 8 8 6 5 2 3 2 2
9 7 8 7 4 5 4 3 3 4 4 4 4 4 4 4 3 2 2 2 2 2 2 2 2 3 3 4 5 5 6 8 8 8 8 8 8 7 8 7 6 9 7 9
Wind_Direction
214 225 222 220 216 228 228 218 186 165 168 174 152 151 161 176 174 165 167 167 170 168 163 159 160 154 147 145 146 148 152 141 152 158 172 167 161 169 163 148 119 118 70 70
212 226 226 225 221 230 235 229 207 160 170 182 168 167 164 174 184 175 170 170 169 167 163 159 161 160 155 151 151 151 155 157 173 168 175 180 149 172 156 107 114 133 132 115
220 233 228 223 224 228 238 235 230 204 189 191 177 189 170 173 180 174 169 168 169 167 164 159 164 167 166 161 160 169 163 159 176 167 174 188 147 152 84 109 126 145 155 145
220 234 235 231 227 239 240 242 248 232 222 220 209 206 172 170 177 173 172 172 174 171 166 165 168 170 172 166 164 159 155 156 161 167 188 190 184 179 167 150 120 118 59 73
223 223 228 233 230 237 241 248 258 256 244 241 218 228 177 173 181 177 176 175 174 169 166 165 167 167 171 167 161 155 148 149 151 169 189 203 212 173 127 107 107 113 105 16
236 229 227 234 228 235 242 243 251 253 251 241 223 227 190 179 182 181 172 171 166 161 159 157 159 154 158 160 155 151 144 148 155 170 179 185 221 184 116 117 137 169 165 186
227 228 221 229 227 223 230 234 239 246 244 241 230 221 184 156 168 172 167 167 165 159 157 157 158 156 157 157 151 149 148 154 161 170 177 175 197 192 185 198 185 210 181 154
217 219 214 215 226 226 223 232 234 240 244 247 231 218 174 157 156 157 154 152 157 160 158 159 160 158 160 160 154 149 147 153 162 169 169 169 178 189 194 194 217 192 158 101
224 220 206 208 221 235 232 232 240 248 260 267 240 185 172 164 156 150 154 156 159 166 160 159 161 161 161 161 157 155 149 152 157 159 159 156 162 181 192 146 174 23 67 102
250 245 214 203 216 229 246 249 250 246 254 258 249 225 190 166 160 156 166 160 160 167 161 156 157 155 156 157 154 154 151 151 152 159 165 163 157 157 154 121 128 88 65 61
241 243 230 210 211 223 227 238 248 262 262 255 261 238 189 156 159 165 169 164 163 161 161 157 156 154 157 158 159 155 152 152 154 156 155 143 137 144 143 138 132 124 107 103
233 242 239 226 218 230 241 240 241 249 262 268 271 274 145 150 169 169 164 161 155 154 155 154 155 154 154 156 156 154 155 156 155 154 148 145 135 131 134 140 137 133 127 123
234 243 239 231 223 218 231 238 243 250 253 254 253 236 165 145 154 151 143 145 139 138 136 146 149 152 154 154 150 152 156 156 156 153 151 145 135 130 127 126 132 134 131 128
253 241 246 240 231 225 223 233 239 245 247 248 244 232 187 152 133 128 126 133 143 145 146 151 145 149 151 149 150 153 156 156 153 151 153 146 141 137 135 131 126 134 135 130
241 239 248 259 264 258 244 235 232 235 245 252 254 246 207 168 150 136 132 150 162 159 161 154 153 152 155 155 154 155 157 154 152 152 153 149 147 144 141 137 130 130 137 135
243 259 252 253 255 258 255 245 239 237 237 246 256 261 257 177 147 131 147 171 180 177 171 164 158 156 159 162 163 161 157 156 155 157 156 151 152 153 152 148 141 138 132 121
219 247 252 251 247 252 247 242 240 241 240 240 246 250 238 206 158 149 145 165 190 190 169 168 166 162 168 167 163 163 159 157 159 161 159 159 157 158 161 162 149 145 139 129
232 238 246 248 250 244 243 245 240 240 242 247 245 243 240 212 159 140 141 154 175 173 179 167 169 164 168 166 164 164 164 164 165 166 165 165 164 162 154 149 146 145 140 136
225 225 240 243 242 244 241 242 244 241 241 247 263 258 236 224 182 162 127 109 145 145 102 157 169 168 166 167 166 166 171 173 173 173 172 170 167 162 158 153 149 148 146 143
211 212 231 241 242 242 239 240 246 242 233 235 254 258 259 245 230 189 123 115 111 76 66 122 176 170 165 165 166 171 178 180 180 177 171 167 165 165 162 156 153 153 152 150
208 209 224 241 246 245 263 250 226 229 227 40 300 315 281 311 346 61 73 77 94 104 97 109 160 164 166 163 170 177 181 184 178 168 161 161 162 163 158 154 156 157 154 144
214 214 219 233 244 241 276 245 230 126 49 36 10 318 28 30 41 55 65 80 85 85 95 122 150 170 167 168 174 183 186 176 167 164 162 164 165 172 166 158 158 157 149 147
224 224 224 227 238 230 8 27 80 68 12 335 327 311 305 274 159 110 81 87 103 100 76 218 182 180 172 176 179 186 181 166 165 165 166 165 163 162 159 161 163 164 166 171
226 232 244 245 230 232 236 300 15 313 284 299 306 299 299 262 208 178 152 144 147 143 161 205 185 198 182 178 183 181 175 171 167 167 166 163 160 162 156 160 165 171 175 175
265 243 241 246 245 246 247 268 287 300 303 299 305 302 304 288 256 205 177 176 185 197 205 202 187 196 192 175 173 174 171 168 169 167 166 168 170 165 156 146 123 156 127 148
257 255 244 248 261 259 252 260 280 280 281 286 292 290 288 278 267 240 209 190 201 201 213 213 202 199 199 170 160 167 170 170 171 174 176 176 175 167 162 147 116 63 80 87
Height
1475 1478 1481 1476 1472 1473 1474 1479 1483 1479 1474 1478 1484 1490 1493 1496 1499 1503 1508 1513 1518 1521 1524 1527 1529 1531 1532 1533 1534 1536 1537 1537 1538 1539 1540 1541 1542 1543 1543 1543 1544 1544 1544 1544
1475 1478 1471 1467 1467 1470 1473 1479 1481 1476 1473 1477 1483 1487 1487 1491 1495 1499 1504 1509 1514 1518 1522 1525 1528 1530 1531 1532 1533 1535 1536 1537 1538 1539 1540 1541 1542 1542 1543 1544 1544 1544 1544 1544
1475 1471 1465 1466 1468 1472 1473 1477 1479 1480 1475 1474 1483 1492 1487 1488 1492 1496 1501 1506 1511 1515 1520 1523 1526 1529 1530 1531 1532 1534 1535 1536 1537 1539 1539 1540 1541 1542 1543 1544 1543 1543 1544 1544
1470 1466 1465 1467 1469 1470 1479 1470 1472 1475 1483 1487 1485 1504 1491 1487 1489 1493 1498 1502 1507 1512 1517 1520 1524 1527 1529 1530 1531 1533 1534 1535 1537 1538 1539 1540 1541 1542 1543 1543 1543 1543 1543 1543
1468 1464 1466 1470 1468 1468 1472 1468 1471 1473 1480 1487 1485 1497 1495 1485 1491 1490 1494 1498 1503 1508 1513 1518 1522 1525 1527 1529 1531 1532 1533 1535 1536 1537 1538 1539 1541 1542 1542 1543 1543 1543 1543 1543
1463 1461 1462 1464 1464 1466 1467 1470 1473 1474 1480 1499 1488 1496 1501 1485 1487 1486 1490 1495 1500 1506 1511 1516 1520 1523 1526 1528 1530 1531 1532 1534 1535 1536 1537 1538 1540 1541 1541 1542 1542 1542 1542 1542
1470 1463 1461 1463 1468 1468 1470 1483 1500 1506 1506 1501 1480 1488 1491 1475 1475 1481 1486 1492 1497 1503 1508 1513 1518 1521 1524 1527 1529 1530 1531 1533 1534 1535 1537 1538 1539 1540 1540 1541 1541 1541 1542 1541
1477 1476 1463 1463 1467 1471 1472 1479 1502 1516 1514 1499 1482 1488 1480 1470 1472 1478 1483 1489 1495 1501 1506 1511 1515 1519 1522 1525 1528 1529 1530 1531 1533 1534 1536 1537 1538 1539 1540 1540 1541 1541 1541 1541
1469 1471 1458 1460 1462 1466 1472 1474 1472 1487 1494 1500 1489 1482 1476 1470 1473 1477 1482 1488 1494 1499 1503 1508 1513 1517 1520 1523 1526 1528 1529 1530 1532 1533 1535 1536 1537 1538 1539 1539 1539 1540 1540 1540
1461 1471 1461 1459 1463 1464 1466 1468 1474 1486 1506 1512 1499 1489 1484 1477 1476 1478 1482 1487 1492 1497 1501 1506 1510 1514 1518 1521 1524 1526 1528 1529 1530 1532 1534 1535 1536 1537 1537 1537 1538 1538 1538 1539
1460 1471 1468 1462 1468 1470 1471 1472 1474 1478 1483 1502 1509 1496 1467 1470 1473 1476 1481 1486 1490 1495 1499 1503 1508 1512 1516 1520 1522 1524 1526 1528 1529 1531 1533 1534 1535 1535 1536 1536 1536 1537 1537 1537
1461 1467 1474 1466 1459 1461 1465 1469 1473 1489 1491 1489 1498 1494 1463 1466 1470 1474 1479 1484 1489 1493 1497 1501 1506 1510 1514 1518 1521 1523 1525 1527 1528 1530 1531 1532 1534 1534 1534 1535 1535 1536 1536 1536
1464 1472 1484 1481 1473 1466 1468 1466 1468 1473 1480 1488 1498 1494 1466 1469 1470 1475 1480 1484 1488 1492 1497 1501 1505 1509 1512 1516 1519 1521 1523 1525 1527 1528 1530 1531 1532 1533 1533 1534 1534 1535 1535 1536
1468 1472 1479 1485 1477 1468 1471 1469 1468 1474 1484 1486 1485 1482 1472 1471 1474 1478 1481 1485 1488 1492 1497 1500 1503 1507 1510 1513 1517 1520 1522 1524 1525 1527 1529 1530 1531 1532 1532 1533 1533 1534 1535 1535
1469 1474 1473 1470 1465 1464 1467 1468 1468 1472 1474 1481 1478 1474 1471 1472 1475 1479 1483 1487 1490 1493 1496 1499 1502 1506 1509 1512 1515 1518 1520 1522 1524 1525 1527 1528 1529 1531 1531 1532 1533 1533 1534 1535
1471 1475 1475 1475 1467 1465 1467 1465 1466 1467 1468 1471 1472 1473 1467 1470 1474 1479 1483 1487 1490 1492 1495 1498 1501 1504 1507 1510 1513 1516 1518 1520 1522 1524 1525 1527 1528 1529 1530 1531 1531 1532 1533 1534
1474 1480 1483 1481 1471 1470 1476 1465 1464 1465 1463 1467 1474 1472 1468 1471 1475 1479 1484 1488 1490 1492 1494 1497 1500 1502 1505 1508 1511 1514 1516 1518 1520 1522 1524 1525 1526 1527 1528 1529 1530 1530 1531 1533
1476 1481 1482 1481 1481 1491 1469 1454 1455 1460 1461 1462 1464 1466 1469 1472 1476 1480 1484 1487 1489 1492 1494 1496 1499 1501 1503 1506 1509 1512 1514 1516 1518 1520 1522 1523 1525 1526 1527 1527 1528 1528 1530 1532
1473 1479 1484 1483 1485 1478 1464 1456 1456 1462 1465 1462 1465 1466 1469 1472 1475 1480 1483 1486 1489 1491 1493 1495 1497 1499 1502 1504 1506 1509 1511 1513 1516 1517 1519 1521 1522 1524 1525 1526 1526 1528 1529 1531
1472 1476 1485 1483 1486 1484 1467 1455 1455 1460 1470 1464 1466 1469 1470 1472 1476 1480 1482 1484 1488 1490 1492 1493 1496 1498 1499 1501 1503 1505 1508 1510 1512 1514 1517 1518 1520 1521 1523 1524 1525 1527 1528 1530
1475 1479 1483 1483 1482 1471 1459 1455 1457 1473 1474 1468 1468 1471 1473 1475 1478 1481 1482 1484 1487 1489 1490 1492 1494 1495 1497 1499 1501 1502 1505 1507 1509 1512 1514 1516 1517 1519 1521 1522 1523 1525 1527 1528
1471 1475 1480 1480 1483 1476 1460 1458 1464 1468 1468 1469 1471 1472 1474 1477 1479 1480 1482 1484 1486 1488 1489 1491 1492 1493 1495 1496 1498 1500 1502 1504 1507 1509 1511 1513 1515 1517 1519 1520 1521 1523 1525 1527
1463 1466 1469 1472 1472 1466 1464 1464 1466 1468 1470 1471 1472 1474 1475 1477 1479 1481 1482 1484 1486 1487 1488 1489 1490 1491 1493 1494 1496 1498 1500 1502 1504 1506 1508 1511 1513 1515 1517 1518 1519 1521 1523 1525
1458 1461 1464 1466 1464 1465 1465 1466 1467 1469 1471 1472 1473 1475 1476 1477 1478 1480 1482 1484 1485 1486 1487 1487 1488 1489 1490 1492 1494 1495 1497 1499 1501 1503 1505 1508 1510 1512 1514 1516 1518 1520 1522 1523
1460 1461 1462 1464 1465 1465 1466 1467 1468 1469 1471 1472 1473 1474 1475 1476 1477 1479 1480 1482 1483 1484 1485 1486 1486 1487 1488 1489 1491 1493 1495 1497 1498 1501 1503 1505 1507 1510 1512 1514 1516 1518 1520 1522
1461 1462 1463 1464 1465 1466 1467 1467 1468 1470 1471 1471 1473 1473 1474 1476 1476 1477 1478 1480 1481 1482 1483 1483 1484 1484 1485 1487 1488 1489 1491 1494 1496 1497 1500 1502 1505 1507 1509 1511 1513 1515 1518 1520